Zurück zum Katalog

KUIPER-00620

AktivKommunikationLEO
NORAD 69295·PAYLOAD·🇺🇸 United States

Gestartet May 29, 2026 von Vandenberg Space Force Base

Loading…

Nächste Überflüge (nächste 24 Stunden)

TLE

AktuellSource: CelesTrak SupGP

Epoche: Sep 14, 2026, 18:26 UTC

1 69295C 26118AE  26257.76850694  .00007515  00000+0  98403-3 0  2577
2 69295  51.9041 357.0500 0000388  91.1655 140.4293 14.79912196    12

Verfolge KUIPER-00620 in Echtzeit mit AllMySat

Download on the App Store